Regional Weather Roundup
Issued by NWS Spokane, WA

Home | Current Version | Previous Version | Text Only | Print | Product List | Glossary On
Versions: 1 2 3 4 5 6 7 8 9 10 11 12 13 14 15 16 17 18 19 20 21 22 23 24 25 26 27 28 29 30 31 32 33 34 35 36 37 38 39 40 41 42 43 44 45 46 47 48 49 50
000
NZUS01 KOTX 210910
RWROTX
EASTERN WASHINGTON/NORTHERN IDAHO ROUNDUP
NATIONAL WEATHER SERVICE, SPOKANE WA
200 AM PDT SUN SEP 21 2014

Note: "fair" indicated few or no clouds below 12,000 feet with no
significant weather and/or obstructions to visibility.

...NORTHEAST WASHINGTON AND NORTHERN IDAHO PANHANDLE...

CITY           SKY/WX    TMP DP  RH WIND       PRES   REMARKS
SPOKANE INTL   CLEAR     63  43  48 NE8       30.04S
SPOKANE DOWNTO CLEAR     54  44  69 CALM      30.04S
COEUR D ALENE  CLEAR     63  45  51 N16       30.05F
DEER PARK      CLEAR     62  45  53 NE9       30.05F
SANDPOINT      CLEAR     54  45  71 N6        30.08F

...SOUTHEAST WASHINGTON AND SOUTHERN IDAHO PANHANDLE...

CITY           SKY/WX    TMP DP  RH WIND       PRES   REMARKS
WALLA WALLA    CLEAR     66  46  48 S7        29.95F
PULLMAN/MOSCOW CLEAR     60  38  43 CALM      30.03F
LEWISTON       CLEAR     63  37  38 CALM      29.98S
LOWELL           N/A     54  51  90 N3        30.06S

...COLUMBIA BASIN...

CITY           SKY/WX    TMP DP  RH WIND       PRES   REMARKS
EPHRATA        CLEAR     70  39  32 NW13      29.98S
MOSES LAKE     CLEAR     57  42  57 N7        29.99S
TRI CITIES     CLEAR     57  51  80 N10       29.93S
HERMISTON      CLEAR     55  46  71 S5        29.92S
PENDLETON      CLEAR     61  45  55 SE9       29.96R

...EAST SLOPES CASCADES...

CITY           SKY/WX    TMP DP  RH WIND       PRES   REMARKS
THE DALLES     CLEAR     62  50  64 CALM      29.93S
YAKIMA         CLEAR     58  48  69 W8        29.98F
ELLENSBURG     CLEAR     55  45  68 CALM      30.02F
WENATCHEE      CLEAR     64  45  49 NW5       30.01S
OMAK           CLEAR     61  37  41 N10       30.04S

...SOUTHERN BRITISH COLUMBIA...

CITY           SKY/WX    TMP DP  RH WIND       PRES   REMARKS
PENTICTON      CLEAR     54  43  66 N9        30.07S
CRANBROOK      CLEAR     52  43  71 CALM      30.21S

...WESTERN MONTANA...

CITY           SKY/WX    TMP DP  RH WIND       PRES   REMARKS
MISSOULA       CLEAR     50  39  66 CALM      30.19R

...NEIGHBORING CITIES...

CITY           SKY/WX    TMP DP  RH WIND       PRES   REMARKS
SEATTLE        CLEAR     59  54  83 N5        29.89S
CALGARY        CLEAR     48  41  76 SW5       30.20F



USA.gov is the U.S. government's official web portal to all federal, state and local government web resources and services.